Cloud_Cover
0 0 38 18 50 4 21 5 4 5 45 21 5 1 29 0 13 15 11 2 0 0 0 14 49 12 70 62 74 8 0 0 0 0 0 0 0 0 8 33 3 26 0
0 0 0 47 26 0 8 7 1 5 66 5 5 0 27 23 99 85 8 0 0 0 0 0 0 0 24 100 6 0 6 6 0 0 0 0 0 0 1 95 27 3 0
0 0 0 2 51 1 22 18 0 0 24 64 5 96 100 100 48 3 6 0 0 0 0 0 0 0 0 0 0 0 1 7 0 0 0 0 0 0 0 4 90 0 0
21 13 2 0 0 8 17 12 0 0 4 91 23 1 100 67 62 91 16 0 0 0 0 0 0 0 0 0 0 0 0 0 2 0 0 0 0 0 0 37 100 57 27
100 29 4 4 6 8 22 4 0 0 0 12 43 5 100 51 99 47 4 0 0 0 0 0 0 0 0 0 0 0 0 0 0 0 0 0 0 0 0 91 100 100 84
100 100 11 5 5 2 1 0 0 0 0 5 4 5 100 100 100 100 58 57 11 0 0 0 0 0 0 0 0 3 0 1 0 0 0 0 0 0 0 5 5 99 99
100 100 100 99 12 9 5 5 5 3 2 0 0 5 88 100 100 100 100 100 5 0 0 0 0 0 4 1 1 0 2 39 17 0 2 5 3 2 0 5 4 69 94
100 100 100 100 100 54 25 8 8 5 6 5 4 5 76 100 100 100 100 98 26 5 1 0 1 1 5 1 1 1 0 0 0 3 12 18 5 5 22 56 9 78 7
100 100 100 100 100 100 100 100 93 8 80 7 35 93 100 100 100 100 100 100 93 12 2 0 0 0 0 0 0 0 0 6 8 11 35 25 95 12 71 100 100 100 7
100 100 100 100 100 100 100 100 100 100 100 52 40 99 100 100 100 100 100 100 97 2 0 0 0 0 0 0 0 2 1 100 100 13 3 16 7 52 100 70 99 89 100
100 100 100 98 92 99 100 100 100 100 100 100 100 100 100 96 32 63 18 6 6 4 0 0 0 13 0 0 0 0 0 2 0 1 8 2 0 2 12 24 100 50 32
100 100 100 100 100 94 100 100 100 100 100 99 97 100 99 51 9 5 5 58 31 4 5 0 0 1 0 5 0 0 0 0 0 2 5 2 5 5 4 1 3 100 100
100 100 100 100 94 48 83 91 100 99 71 44 47 86 82 71 79 39 5 5 8 0 4 5 0 0 0 0 0 0 1 0 0 5 5 5 8 74 98 9 34 8 100
100 100 100 100 96 77 81 86 93 68 61 39 9 63 60 55 8 7 41 90 100 99 90 32 0 0 0 0 0 2 0 0 0 0 0 0 72 5 26 100 100 100 95
7 7 70 95 73 80 95 100 72 21 26 44 12 42 80 10 10 18 65 100 100 40 4 2 3 0 0 0 0 7 5 5 5 3 0 0 0 0 6 4 8 74 79
0 0 4 98 100 100 96 38 73 50 9 31 16 44 35 98 86 98 100 92 84 58 10 5 3 0 2 0 0 5 5 5 8 5 5 5 2 0 0 0 0 0 4
0 0 0 1 45 100 100 95 30 92 98 100 100 100 100 100 100 100 100 100 79 10 5 16 5 5 5 5 0 0 1 0 0 0 0 0 0 0 0 0 0 0 0
0 0 0 0 6 16 43 86 100 100 100 100 100 100 100 100 100 100 100 64 55 5 5 5 0 4 3 4 0 0 0 0 0 0 0 0 0 0 0 0 0 0 0
0 0 1 6 25 27 33 90 99 100 100 100 100 100 100 100 94 100 48 24 40 13 5 1 5 2 0 0 0 0 0 0 0 0 0 0 0 0 3 5 5 26 40
0 0 32 43 54 18 26 100 100 100 100 100 100 100 100 100 100 42 14 36 28 31 3 5 0 0 0 0 0 0 0 0 0 0 1 4 0 2 1 1 0 0 0
0 41 94 100 46 0 57 100 100 100 100 100 100 100 100 100 92 24 18 61 5 5 5 0 0 0 0 0 0 0 0 0 0 0 0 0 0 0 0 0 0 0 0
0 47 100 36 42 37 92 100 100 100 100 100 100 100 100 41 6 54 38 2 1 5 2 0 0 0 0 0 0 0 0 0 0 0 0 0 0 0 0 0 0 0 0
0 66 64 31 85 99 100 98 71 98 96 100 100 94 10 5 5 12 5 4 5 0 0 0 0 0 0 0 0 0 0 1 0 0 0 0 0 0 0 0 0 0 0
0 8 6 20 88 100 100 76 1 0 65 100 51 48 5 0 5 5 5 5 5 4 0 0 0 0 0 0 0 0 0 0 0 0 0 2 0 2 3 2 2 2 1
24 0 0 3 65 100 100 43 6 61 71 25 3 1 0 2 5 5 5 56 85 5 0 0 0 0 0 0 0 0 0 0 0 0 4 0 0 2 5 5 5 4 5
14 0 0 8 63 100 81 99 30 52 35 3 0 0 4 70 99 45 15 83 20 0 0 0 0 0 0 0 0 0 0 0 0 0 0 0 0 0 0 0 0 0 0